This is the latest recevied weather packets stored in our database for station/object N7CW. If no packets are shown the sender has not sent any weather packets the latest 10 day(s).
| Time | Temp. | Humidity | Pressure | Rain* | Wind** | Luminosity | Snow |
|---|---|---|---|---|---|---|---|
| 1777917016 | 14.44° C | 45% | 1015.2 hPa | 0 mm | - | 484 W/m² | - |
| 1777916714 | 14.44° C | 45% | 1015.4 hPa | 0 mm | - | 503 W/m² | - |
| 1777916411 | 15° C | 43% | 1015.4 hPa | 0 mm | - | 541 W/m² | - |
| 1777916108 | 14.44° C | 46% | 1015.3 hPa | 0 mm | - | 518 W/m² | - |
| 1777915805 | 15° C | 45% | 1015.2 hPa | 0 mm | - | 468 W/m² | - |
| 1777915501 | 15.56° C | 45% | 1015.2 hPa | 0 mm | - | 552 W/m² | - |
| 1777915197 | 15.56° C | 47% | 1015.7 hPa | 0 mm | - | 572 W/m² | - |
| 1777914894 | 14.44° C | 46% | 1015.4 hPa | 0 mm | - | 611 W/m² | - |
| 1777914591 | 15° C | 46% | 1015.3 hPa | 0 mm | - | 579 W/m² | - |
| 1777914287 | 15° C | 44% | 1014.9 hPa | 0 mm | - | 619 W/m² | - |
| 1777913985 | 15° C | 46% | 1014.9 hPa | 0 mm | - | 625 W/m² | - |
| 1777913681 | 15° C | 45% | 1014.8 hPa | 0 mm | - | 706 W/m² | - |
| 1777913378 | 14.44° C | 46% | 1014.8 hPa | 0 mm | - | 355 W/m² | - |
| 1777913074 | 13.33° C | 49% | 1015.1 hPa | 0 mm | - | 492 W/m² | - |
| 1777912771 | 13.89° C | 47% | 1015.3 hPa | 0 mm | - | 362 W/m² | - |
| 1777912466 | 13.89° C | 45% | 1015.4 hPa | 0 mm | - | 476 W/m² | - |
| 1777912163 | 13.89° C | 45% | 1015.7 hPa | 0 mm | - | 559 W/m² | - |
| 1777911859 | 13.89° C | 45% | 1015.2 hPa | 0 mm | - | 452 W/m² | - |
| 1777911556 | 15° C | 43% | 1015.4 hPa | 0 mm | - | 450 W/m² | - |
| 1777911252 | 13.89° C | 44% | 1015.4 hPa | 0 mm | - | 501 W/m² | - |
| 1777910949 | 14.44° C | 43% | 1015.3 hPa | 0 mm | - | 508 W/m² | - |
| 1777910647 | 13.89° C | 42% | 1014.8 hPa | 0 mm | - | 431 W/m² | - |
| 1777910343 | 13.33° C | 42% | 1014.9 hPa | 0 mm | - | 370 W/m² | - |
| 1777910040 | 13.33° C | 44% | 1015.3 hPa | 0 mm | - | 374 W/m² | - |
| 1777909737 | 13.89° C | 47% | 1015.2 hPa | 0 mm | - | 269 W/m² | - |
* Rain latest hour (hover to see other rain measurements)
** Current wind speed in m/s (hover to see current wind gust speed)